Leadville, CO

8:54 PM MST on February 12, 2016 (GMT -0700)
Lake County

Weather History for KLXV - April, 2014

Change the Weather History Date:

Sunday, April 27, 2014

  Actual Average Record
Temperature  
Mean Temperature 26 °F -  
Max Temperature 31 °F 47 °F 62 °F (1981)
Min Temperature 20 °F 22 °F 6 °F (1984)
Degree Days  
Heating Degree Days 39 31  
Month to date heating degree days 947 929  
Since 1 July heating degree days 9756 9912  
Cooling Degree Days 0 0  
Month to date cooling degree days 0 0  
Year to date cooling degree days 0 0  
Moisture  
Dew Point 19 °F    
Average Humidity 71    
Maximum Humidity 92    
Minimum Humidity 49    
Precipitation  
Precipitation 0.08 in 0.03 in 0.08 in (2014)
Month to date precipitation 0.70 0.96  
Year to date precipitation 6.55 3.22  
Sea Level Pressure  
Sea Level Pressure 29.59 in    
Wind  
Wind Speed 13 mph (NNW)    
Max Wind Speed 29 mph    
Max Gust Speed 37 mph    
Visibility 4 miles    
Events Fog , Snow    
T = Trace of Precipitation, MM = Missing Value Source: NWS Daily Summary

Daily Weather History Graph

Daily Weather History Graph

Search for Another Location

Airport or City:

Trip Planner

Search our weather history database for the weather conditions in past years. The results will help you decide how hot, cold, wet, or windy it might be!

Date:

Astronomy

Apr. 27, 2014 Rise Set
Actual Time 6:11 AM MDT 7:54 PM MDT
Civil Twilight 5:43 AM MDT 8:23 PM MDT
Nautical Twilight 5:08 AM MDT 8:58 PM MDT
Astronomical Twilight 4:31 AM MDT 9:35 PM MDT
Moon 5:13 AM MDT (4/27) 6:32 PM MDT (4/27)
Length of Visible Light 14h 40m
Length of Day
13h 42m
Waning Crescent, 3% of the Moon is Illuminated
Apr 27
Waning Crescent
Apr 29
New
May 6
First Quarter
May 14
Full
May 21
Last Quarter

Hourly Weather History & Observations

Time (MDT) Temp. Windchill Dew Point Humidity Pressure Visibility Wind Dir Wind Speed Gust Speed Precip Events Conditions
12:53 AM 28.0 °F 20.0 °F 19.9 °F 72% 29.26 in 10.0 mi North 8.1 mph - N/A   Overcast
1:53 AM 28.0 °F 20.0 °F 21.0 °F 75% 29.24 in 10.0 mi WNW 8.1 mph - 0.00 in   Overcast
2:53 AM 26.1 °F 18.4 °F 21.9 °F 84% 29.24 in 6.0 mi North 6.9 mph - 0.00 in Snow Light Snow
3:53 AM 27.0 °F 18.7 °F 21.0 °F 78% 29.24 in 10.0 mi North 8.1 mph - 0.00 in   Overcast
4:04 AM 26.1 °F 17.6 °F 23.0 °F 88% 29.51 in 4.0 mi WNW 8.1 mph - 0.00 in Snow Light Snow
4:11 AM 26.1 °F 18.4 °F 24.1 °F 92% 29.52 in 1.8 mi WNW 6.9 mph - 0.00 in Snow Light Snow
4:53 AM 25.0 °F 11.3 °F 21.9 °F 88% 29.27 in 0.8 mi North 18.4 mph 31.1 mph 0.01 in Snow Light Snow
5:08 AM 24.1 °F 12.0 °F 21.0 °F 88% 29.52 in 1.0 mi North 13.8 mph 29.9 mph 0.00 in Snow Light Snow
5:28 AM 24.1 °F 12.0 °F 21.0 °F 88% 29.52 in 2.0 mi North 13.8 mph 24.2 mph 0.01 in Snow Light Snow
5:40 AM 25.0 °F 10.9 °F 21.0 °F 85% 29.53 in 1.2 mi North 19.6 mph 26.5 mph 0.01 in Snow Light Snow
5:53 AM 24.1 °F 11.5 °F 21.0 °F 88% 29.29 in 1.0 mi North 15.0 mph 28.8 mph 0.01 in Snow Light Snow
6:13 AM 24.1 °F 9.8 °F 21.0 °F 88% 29.54 in 1.5 mi North 19.6 mph 27.6 mph 0.00 in Snow Light Snow
6:32 AM 23.0 °F 8.3 °F 19.0 °F 85% 29.55 in 0.5 mi North 19.6 mph 28.8 mph 0.00 in Fog , Snow Light Snow
6:40 AM 24.1 °F 10.6 °F 19.0 °F 81% 29.55 in 1.0 mi North 17.3 mph 28.8 mph 0.00 in Snow Light Snow
6:45 AM 24.1 °F 10.6 °F 18.0 °F 77% 29.55 in 4.0 mi North 17.3 mph 24.2 mph 0.00 in Snow Light Snow
6:53 AM 24.1 °F 11.0 °F 17.1 °F 75% 29.34 in 9.0 mi North 16.1 mph 27.6 mph 0.00 in   Overcast
7:21 AM 23.0 °F 11.7 °F 17.1 °F 78% 29.56 in 10.0 mi North 11.5 mph 23.0 mph 0.00 in   Overcast
7:53 AM 21.9 °F 6.2 °F 15.1 °F 75% 29.40 in 4.0 mi North 21.9 mph 33.4 mph 0.00 in Snow Light Snow
8:15 AM 23.0 °F 9.2 °F 14.0 °F 68% 29.57 in 10.0 mi North 17.3 mph 29.9 mph 0.00 in   Overcast
8:53 AM 24.1 °F 10.6 °F 15.1 °F 69% 29.42 in 10.0 mi North 17.3 mph 31.1 mph 0.00 in   Overcast
9:53 AM 24.8 °F 14.0 °F 15.8 °F 69% 29.60 in 2.5 mi NW 11.5 mph 20.7 mph N/A Snow Light Snow
10:29 AM 26.1 °F 15.6 °F 17.1 °F 69% 29.60 in 4.0 mi NNW 11.5 mph 23.0 mph 0.00 in Snow Light Snow
10:53 AM 26.1 °F 16.8 °F 17.1 °F 69% 29.42 in 9.0 mi NW 9.2 mph 19.6 mph 0.00 in Snow Light Snow
11:18 AM 28.0 °F 14.9 °F 16.0 °F 61% 29.60 in 10.0 mi WNW 19.6 mph 25.3 mph 0.00 in   Overcast
11:53 AM 30.0 °F 18.3 °F 18.0 °F 61% 29.42 in 10.0 mi WNW 17.3 mph 31.1 mph 0.00 in   Overcast
12:53 PM 30.0 °F 19.5 °F 14.0 °F 51% 29.41 in 10.0 mi NW 13.8 mph 29.9 mph 0.00 in   Overcast
1:53 PM 30.2 °F 19.3 °F 19.4 °F 64% 29.62 in 10.0 mi WNW 15.0 mph 26.5 mph N/A   Overcast
2:03 PM 27.0 °F 14.3 °F 19.9 °F 75% 29.62 in 1.8 mi WNW 17.3 mph 29.9 mph 0.00 in Snow Light Snow
2:18 PM 25.0 °F 10.6 °F 19.9 °F 81% 29.63 in 0.5 mi WNW 20.7 mph 28.8 mph 0.00 in Snow Snow
2:32 PM 27.0 °F 14.3 °F 19.9 °F 75% 29.63 in 1.8 mi NW 17.3 mph 27.6 mph 0.00 in Snow Light Snow
2:53 PM 27.0 °F 14.3 °F 19.9 °F 75% 29.47 in 3.0 mi West 17.3 mph 23.0 mph 0.00 in Snow Light Snow
2:57 PM 27.0 °F 13.2 °F 19.9 °F 75% 29.63 in 1.8 mi WNW 20.7 mph 28.8 mph 0.00 in Snow Light Snow
3:07 PM 26.1 °F 13.1 °F 21.0 °F 81% 29.64 in 0.5 mi WNW 17.3 mph 25.3 mph 0.00 in Snow Snow
3:14 PM 27.0 °F 15.6 °F 21.0 °F 78% 29.64 in 1.0 mi WNW 13.8 mph 25.3 mph 0.00 in Snow Light Snow
3:18 PM 27.0 °F 14.3 °F 19.9 °F 75% 29.63 in 3.0 mi WNW 17.3 mph 23.0 mph 0.00 in Snow Light Snow
3:30 PM 28.0 °F 15.7 °F 19.9 °F 72% 29.64 in 2.5 mi WNW 17.3 mph 28.8 mph 0.00 in Snow Light Snow
3:35 PM 28.9 °F 16.9 °F 21.0 °F 72% 29.64 in 1.2 mi NW 17.3 mph 28.8 mph 0.00 in Snow Light Snow
3:41 PM 30.0 °F 19.1 °F 19.0 °F 64% 29.64 in 3.0 mi NW 15.0 mph 23.0 mph 0.00 in Snow Light Snow
3:53 PM 28.0 °F 17.0 °F 19.0 °F 69% 29.47 in 6.0 mi North 13.8 mph 24.2 mph 0.00 in Snow Light Snow
3:59 PM 27.0 °F 15.2 °F 19.9 °F 75% 29.65 in 1.5 mi NW 15.0 mph 24.2 mph 0.00 in Snow Light Snow
4:08 PM 26.6 °F 16.2 °F 21.2 °F 80% 29.65 in 0.8 mi NW 11.5 mph - N/A Snow Light Snow
4:32 PM 28.0 °F 16.1 °F 19.0 °F 69% 29.66 in 2.5 mi NW 16.1 mph 27.6 mph 0.01 in Snow Light Snow
4:39 PM 28.9 °F 16.9 °F 19.0 °F 67% 29.66 in 5.0 mi NW 17.3 mph 27.6 mph 0.01 in Snow Light Snow
4:46 PM 27.0 °F 14.7 °F 19.0 °F 72% 29.66 in 2.5 mi NNW 16.1 mph 26.5 mph 0.01 in Snow Light Snow
4:49 PM 26.6 °F 14.7 °F 19.4 °F 74% 29.67 in 1.8 mi NNW 15.0 mph 26.5 mph 0.01 in Snow Light Snow
4:53 PM 26.1 °F 15.0 °F 19.9 °F 78% 29.52 in 1.2 mi North 12.7 mph 23.0 mph 0.01 in Snow Light Snow
5:11 PM 27.0 °F 16.1 °F 19.9 °F 75% 29.68 in 2.0 mi NW 12.7 mph 20.7 mph 0.00 in Snow Light Snow
5:30 PM 27.0 °F 15.6 °F 19.0 °F 72% 29.68 in 4.0 mi NW 13.8 mph 19.6 mph 0.00 in Snow Light Snow
5:49 PM 26.6 °F 12.4 °F 19.4 °F 74% 29.69 in 1.5 mi WNW 21.9 mph 25.3 mph 0.00 in Snow Light Snow
5:53 PM 26.1 °F 12.3 °F 21.0 °F 81% 29.57 in 0.8 mi NW 19.6 mph 28.8 mph 0.00 in Snow Light Snow
6:04 PM 26.1 °F 15.0 °F 19.0 °F 75% 29.70 in 2.0 mi WNW 12.7 mph 25.3 mph 0.00 in Snow Light Snow
6:22 PM 26.1 °F 16.8 °F 19.0 °F 75% 29.71 in 3.0 mi NNW 9.2 mph 18.4 mph 0.00 in Snow Light Snow
6:31 PM 25.0 °F 14.2 °F 19.0 °F 78% 29.71 in 1.8 mi NNW 11.5 mph 23.0 mph 0.00 in Snow Light Snow
6:47 PM 24.8 °F 14.0 °F 19.4 °F 80% 29.71 in 3.0 mi NNW 11.5 mph 18.4 mph 0.00 in Snow Light Snow
6:53 PM 26.1 °F 16.2 °F 17.1 °F 69% 29.57 in 8.0 mi WNW 10.4 mph 25.3 mph 0.00 in   Overcast
7:05 PM 26.1 °F 14.0 °F 15.1 °F 63% 29.71 in 10.0 mi NW 15.0 mph 24.2 mph N/A   Overcast
7:53 PM 25.0 °F 13.1 °F 15.1 °F 66% 29.62 in 10.0 mi WNW 13.8 mph - 0.00 in   Mostly Cloudy
8:20 PM 23.0 °F 10.6 °F 19.0 °F 85% 29.75 in 7.0 mi North 13.8 mph - 0.00 in Snow Light Snow
8:27 PM 23.0 °F 11.1 °F 18.0 °F 81% 29.75 in 9.0 mi North 12.7 mph 23.0 mph 0.00 in   Mostly Cloudy
8:53 PM 24.1 °F 13.1 °F 17.1 °F 75% 29.64 in 10.0 mi NNW 11.5 mph 18.4 mph 0.00 in   Overcast
9:18 PM 23.0 °F 13.9 °F 18.0 °F 81% 29.77 in 4.0 mi NW 8.1 mph - 0.00 in Snow Light Snow
9:24 PM 23.0 °F 13.1 °F 19.0 °F 85% 29.77 in 1.8 mi NNW 9.2 mph - 0.00 in Snow Light Snow
9:46 PM 21.9 °F 13.4 °F 19.0 °F 89% 29.78 in 2.0 mi NNW 6.9 mph - 0.01 in Snow Light Snow
9:53 PM 21.9 °F 13.4 °F 19.9 °F 92% 29.67 in 1.0 mi NNW 6.9 mph - 0.01 in Snow Light Snow
10:00 PM 21.9 °F 12.5 °F 19.0 °F 89% 29.78 in 0.8 mi NW 8.1 mph - 0.01 in Snow Light Snow
10:15 PM 21.9 °F 11.0 °F 19.0 °F 89% 29.78 in 0.8 mi NNW 10.4 mph - 0.02 in Snow Light Snow
10:33 PM 21.0 °F 8.1 °F 19.0 °F 92% 29.79 in 1.0 mi North 13.8 mph - 0.04 in Snow Light Snow
10:38 PM 21.9 °F 11.0 °F 19.0 °F 89% 29.79 in 2.0 mi North 10.4 mph - 0.04 in Snow Light Snow
10:53 PM 21.9 °F 13.4 °F 19.0 °F 89% 29.67 in 2.5 mi North 6.9 mph - 0.04 in Snow Light Snow
11:00 PM 21.0 °F 12.4 °F 18.0 °F 88% 29.79 in 4.0 mi North 6.9 mph - 0.00 in Snow Light Snow
11:11 PM 21.0 °F 11.4 °F 18.0 °F 88% 29.79 in 7.0 mi NNW 8.1 mph - 0.00 in Snow Light Snow
11:46 PM 21.9 °F 10.4 °F 15.1 °F 75% 29.79 in 6.0 mi NNW 11.5 mph 18.4 mph 0.00 in Snow Light Snow
11:53 PM 21.9 °F 10.4 °F 15.1 °F 75% 29.65 in 6.0 mi NW 11.5 mph 19.6 mph 0.00 in Snow Light Snow